Train No Train Name From To Distance Stops avg_speed (km/hr)
14056 Brahmaputra Mail Delhi Dibrugarh 2597 59 49
A Train's "Departure" Station, "Arrival" Station and "Distance" may vary. Although we have verified some of this data from enquiry.indianrail.gov.in
Train No Start Date (yyyy-mm-dd) Status Delay Time Source
14056 2017-01-01 Late 17 hours 55 minutes Source
14056 2017-01-02 Late 16 hours 35 minutes Source
14056 2017-01-03 Late 31 hours 25 minutes Source
14056 2017-01-05 Late 31 hours 35 minutes Source
14056 2017-01-06 Late 29 hours 05 minutes Source
14056 2017-01-07 Late 38 hours 25 minutes Source
14056 2017-01-08 Late 31 hours 15 minutes Source
14056 2017-01-11 Late 18 hours 30 minutes Source
14056 2017-01-14 Late 06 hours 40 minutes Source
14056 2017-01-16 Late 08 hours 00 minutes Source
14056 2017-01-17 Late 10 hours 50 minutes Source
14056 2017-01-19 Late 12 hours 20 minutes Source
14056 2017-01-20 Late 12 hours 15 minutes Source
14056 2017-01-24 Late 10 hours 25 minutes Source
14056 2017-01-25 Late 11 hours 15 minutes Source
14056 2017-01-26 Late 05 hours 50 minutes Source
14056 2017-01-27 Late 07 hours 05 minutes Source
14056 2017-01-29 Late 14 hours 00 minutes Source
14056 2017-01-30 Late 21 hours 25 minutes Source
14056 2017-01-31 Late 18 hours 35 minutes Source
14056 2017-02-01 Late 10 hours 25 minutes Source
14056 2017-02-02 Late 10 hours 15 minutes Source
14056 2017-02-03 Late 10 hours 35 minutes Source
14056 2017-02-04 Late 12 hours 45 minutes Source
14056 2017-02-05 Late 27 hours 55 minutes Source
14056 2017-02-06 Late 14 hours 45 minutes Source
14056 2017-02-09 Late 09 hours 10 minutes Source
14056 2017-02-10 Late 09 hours 20 minutes Source
14056 2017-02-11 Late 30 hours 20 minutes Source
14056 2017-02-12 Late 13 hours 25 minutes Source
14056 2017-02-17 Late 24 hours 55 minutes Source
14056 2017-02-19 Late 28 hours 25 minutes Source
14056 2017-02-20 Late 15 hours 45 minutes Source
14056 2017-02-23 Late 31 hours 11 minutes Source
14056 2017-02-25 Late 28 hours 20 minutes Source
14056 2017-02-27 Late 06 hours 10 minutes Source
14056 2017-03-01 Late 21 hours 40 minutes Source
14056 2017-03-03 Late 27 hours 05 minutes Source
14056 2017-03-04 Late 09 hours 15 minutes Source
14056 2017-03-16 Late 07 hours 05 minutes Source
14056 2017-03-19 Late 15 hours 13 minutes Source
14056 2017-03-30 Late 05 hours 25 minutes Source
14056 2017-04-03 Late 04 hours 55 minutes Source
14056 2017-04-05 Late 05 hours 57 minutes Source
14056 2017-04-07 Late 03 hours 00 minutes Source
14056 2017-04-09 Late 09 hours 00 minutes Source
14056 2017-04-10 Late 13 hours 50 minutes Source
14056 2017-04-11 Late 11 hours 05 minutes Source
14056 2017-04-13 Late 06 hours 35 minutes Source
14056 2017-04-16 Late 05 hours 03 minutes Source
Page 1 of 2, showing 50 records out of 56 total